Voltar ao catálogo

STARLINK-6098

AtivoComunicaçõesVLEO
NORAD 56906·PAYLOAD·🇺🇸 United States

Lançado Jun 12, 2023 de Cape Canaveral Space Force Station

Loading…

Próximas Passagens (próximas 24 horas)

TLE

AtualizadoSource: CelesTrak SupGP

Época: Sep 15, 2026, 01:50 UTC

1 56906C 23083AG  26258.07687500  .00005193  00000+0  18806-3 0  2589
2 56906  43.0009  80.8503 0001530 256.9879 175.5651 15.27579963    18

Acompanhe STARLINK-6098 em tempo real com AllMySat

Download on the App Store